EW5448 Weather Reports


time (UTC)temp
C
wind
direction
speed
KPH
gust
KPH
rain 1hr
cm
rain 24hr
cm
rain mn
cm
humidity
%
barometer
mb
20260510081625 27 134 4.8 8.0 0.00 0.00 0.00 17 991.6
20260510080059 27 84 1.6 3.2 0.00 0.00 0.00 18 991.7
20260510074559 26 331 0.0 1.6 0.00 0.00 0.00 18 991.7
20260510073052 27 329 0.0 0.0 0.00 0.00 0.00 18 991.6
20260510071547 28 259 0.0 1.6 0.00 0.00 0.00 16 991.6
20260510070043 30 225 1.6 8.0 0.00 0.00 0.00 14 991.4
20260510064544 31 134 3.2 9.7 0.00 0.00 0.00 13 991.2
20260510063040 31 123 0.0 6.4 0.00 0.00 0.00 14 991.2
20260510061540 31 152 3.2 8.0 0.00 0.00 0.00 14 991.1
20260510060048 31 136 3.2 8.0 0.00 0.00 0.00 15 991.0
20260510054539 31 157 3.2 8.0 0.00 0.00 0.00 15 990.9
20260510053038 32 117 3.2 8.0 0.00 0.00 0.00 13 990.9
20260510051550 32 146 4.8 9.7 0.00 0.00 0.00 13 990.9
20260510050042 32 112 1.6 6.4 0.00 0.00 0.00 13 990.8
20260510044538 32 123 0.0 8.0 0.00 0.00 0.00 13 990.7
20260510043049 33 87 1.6 6.4 0.00 0.00 0.00 14 990.6
20260510041536 33 138 0.0 3.2 0.00 0.00 0.00 14 990.4
20260510040036 33 140 0.0 3.2 0.00 0.00 0.00 16 990.2
20260510034537 33 148 0.0 3.2 0.00 0.00 0.00 16 990.0
20260510033039 34 157 0.0 6.4 0.00 0.00 0.00 15 989.7
20260510031602 35 251 0.0 8.0 0.00 0.00 0.00 14 989.5
20260510030037 35 114 4.8 9.7 0.00 0.00 0.00 14 989.2
20260510024536 36 163 1.6 9.7 0.00 0.00 0.00 13 989.1
20260510023043 37 178 3.2 11.3 0.00 0.00 0.00 13 989.0
20260510021534 38 184 1.6 11.3 0.00 0.00 0.00 12 988.8
20260510020031 39 187 3.2 12.9 0.00 0.00 0.00 11 988.8
20260510014532 40 176 6.4 12.9 0.00 0.00 0.00 10 988.6
20260510013029 40 132 8.0 12.9 0.00 0.00 0.00 10 988.6
20260510011529 40 171 8.0 22.5 0.00 0.00 0.00 11 988.7
20260510010029 40 163 1.6 16.1 0.00 0.00 0.00 10 988.6
20260510004527 40 143 9.7 20.9 0.00 0.00 0.00 10 988.7
20260510003026 41 171 8.0 16.1 0.00 0.00 0.00 9 988.7
20260510001525 41 119 11.3 19.3 0.00 0.00 0.00 9 988.8
20260510000024 41 109 11.3 19.3 0.00 0.00 0.00 10 988.8
20260509234524 40 143 12.9 20.9 0.00 0.00 0.00 10 988.8
20260509233021 41 145 8.0 17.7 0.00 0.00 0.00 10 988.9
20260509231519 40 238 6.4 22.5 0.00 0.00 0.00 11 989.1
20260509230016 41 170 4.8 12.9 0.00 0.00 0.00 10 989.2
20260509224514 41 111 8.0 20.9 0.00 0.00 0.00 10 989.5
20260509223012 41 151 9.7 19.3 0.00 0.00 0.00 10 989.7
20260509221511 41 151 4.8 16.1 0.00 0.00 0.00 10 989.9
20260509220009 41 193 11.3 20.9 0.00 0.00 0.00 10 990.3
20260509214504 40 261 1.6 14.5 0.00 0.00 0.00 11 990.6
20260509213003 41 277 11.3 19.3 0.00 0.00 0.00 10 990.9
20260509211502 40 115 1.6 12.9 0.00 0.00 0.00 10 991.0
20260509204603 40 107 3.2 6.4 0.00 0.00 0.00 8 991.5
20260509203100 40 238 0.0 8.0 0.00 0.00 0.00 11 991.7
20260509201553 40 108 0.0 9.7 0.00 0.00 0.00 10 992.0
20260509200050 40 238 3.2 11.3 0.00 0.00 0.00 13 992.2
20260509194548 39 161 6.4 20.9 0.00 0.00 0.00 13 992.4
20260509193047 38 111 1.6 8.0 0.00 0.00 0.00 15 992.7
20260509191545 38 141 1.6 12.9 0.00 0.00 0.00 15 992.9
20260509190047 37 323 1.6 12.9 0.00 0.00 0.00 16 993.1
20260509184539 36 150 1.6 8.0 0.00 0.00 0.00 16 993.2
20260509183039 36 291 0.0 12.9 0.00 0.00 0.00 17 993.4
20260509181537 36 244 3.2 12.9 0.00 0.00 0.00 17 993.5
20260509180036 35 259 0.0 9.7 0.00 0.00 0.00 17 993.6
20260509174536 35 109 0.0 8.0 0.00 0.00 0.00 15 993.8
20260509173032 35 185 0.0 6.4 0.00 0.00 0.00 16 993.9
20260509171530 34 113 1.6 8.0 0.00 0.00 0.00 16 994.0
20260509170030 33 215 1.6 8.0 0.00 0.00 0.00 18 994.1
20260509164523 32 158 0.0 4.8 0.00 0.00 0.00 19 994.1
20260509163023 31 113 0.0 3.2 0.00 0.00 0.00 17 994.1
20260509161521 31 263 0.0 6.4 0.00 0.00 0.00 18 994.2
20260509160020 32 149 0.0 0.0 0.00 0.00 0.00 16 994.2
20260509154518 30 150 0.0 1.6 0.00 0.00 0.00 17 994.2
20260509153020 30 229 0.0 3.2 0.00 0.00 0.00 18 994.2
20260509151516 29 9 0.0 1.6 0.00 0.00 0.00 19 994.3
20260509150015 30 227 0.0 0.0 0.00 0.00 0.00 18 994.3
20260509144514 28 78 0.0 1.6 0.00 0.00 0.00 19 994.2
20260509143013 26 86 0.0 1.6 0.00 0.00 0.00 21 994.1
20260509141514 26 86 0.0 1.6 0.00 0.00 0.00 24 994.0
20260509140010 25 86 0.0 1.6 0.00 0.00 0.00 23 993.8
20260509134508 23 86 0.0 3.2 0.00 0.00 0.00 24 993.7
20260509133007 23 92 0.0 3.2 0.00 0.00 0.00 25 993.5
20260509131504 22 168 0.0 0.0 0.00 0.00 0.00 26 993.2
20260509130005 22 168 0.0 0.0 0.00 0.00 0.00 26 993.0
20260509124613 21 148 0.0 1.6 0.00 0.00 0.00 26 992.9
20260509123058 22 207 1.6 6.4 0.00 0.00 0.00 26 992.8
20260509121554 22 150 1.6 8.0 0.00 0.00 0.00 25 992.6
20260509120051 23 157 1.6 8.0 0.00 0.00 0.00 24 992.4
20260509114555 24 209 3.2 11.3 0.00 0.00 0.00 23 992.2
20260509113047 25 167 4.8 14.5 0.00 0.00 0.00 24 992.2
20260509111546 25 151 3.2 9.7 0.00 0.00 0.00 25 992.1
20260509110048 25 142 4.8 9.7 0.00 0.00 0.00 26 992.1
20260509104544 24 337 0.0 1.6 0.00 0.00 0.00 24 992.0
20260509103042 24 332 0.0 3.2 0.00 0.00 0.00 26 992.0
20260509101540 25 149 0.0 3.2 0.00 0.00 0.00 26 992.0
20260509100039 25 294 0.0 3.2 0.00 0.00 0.00 24 992.0
20260509094537 26 309 0.0 8.0 0.00 0.00 0.00 22 991.9
20260509093031 28 111 1.6 9.7 0.00 0.00 0.00 19 991.8
20260509091534 28 101 3.2 6.4 0.00 0.00 0.00 18 991.9
20260509090027 28 114 0.0 6.4 0.00 0.00 0.00 18 991.9
20260509084528 29 105 4.8 9.7 0.00 0.00 0.00 17 991.9
20260509083024 30 93 3.2 8.0 0.00 0.00 0.00 17 991.9